Weather History for Kalaeloa, HI

Change the Weather History Date:

Sunday, August 17, 2014

  Actual Average (PHNL) Record (PHNL)
Temperature  
Mean Temperature 80 °F 82 °F  
Max Temperature 87 °F 89 °F 91 °F (1968)
Min Temperature 73 °F 75 °F 70 °F (1955)
Degree Days  
Heating Degree Days 0 0  
Month to date heating degree days 0  
Since 1 June heating degree days 0  
Since 1 July heating degree days 0  
Cooling Degree Days 15 17  
Month to date cooling degree days 289  
Year to date cooling degree days 2749  
Since 1 June cooling degree days 1247  
Growing Degree Days 30 (Base 50)    
Moisture  
Dew Point 66 °F    
Average Humidity 64    
Maximum Humidity 79    
Minimum Humidity 46    
Precipitation  
Precipitation 0.00 in 0.02 in 0.28 in (1951)
Month to date precipitation 0.31  
Year to date precipitation 8.65  
Snow  
Snow 0.00 in - - ()
Month to date snowfall  
Since 1 June snowfall  
Since 1 July snowfall  
Snow Depth -    
Sea Level Pressure  
Sea Level Pressure 30.04 in    
Wind  
Wind Speed 4 mph (ENE)    
Max Wind Speed 13 mph    
Max Gust Speed 23 mph    
Visibility 10 miles    
Events Rain    
T = Trace of Precipitation, MM = Missing Value Source: NWS Daily Summary

Daily Weather History Graph

Daily Weather History Graph

Search for Another Location

Airport:

Trip Planner

Search our weather history database for the weather conditions in past years. The results will help you decide how hot, cold, wet, or windy it might be!

Date:

Astronomy

Aug. 17, 2014 Rise Set
Actual Time 6:11 AM HST 7:00 PM HST
Civil Twilight 5:48 AM HST 7:23 PM HST
Nautical Twilight 5:21 AM HST 7:50 PM HST
Astronomical Twilight 4:53 AM HST 8:18 PM HST
Moon No Moon Rise 1:09 PM HST (8/17)
Length of Visible Light 13h 35m
Length of Day
12h 49m
Last Quarter, 46% of the Moon is Illuminated
Aug 17
Last Quarter
Aug 25
New
Sep 2
First Quarter
Sep 8
Full
Sep 15
Last Quarter

Hourly Weather History & Observations

Time (HST) Temp. Heat Index Dew Point Humidity Pressure Visibility Wind Dir Wind Speed Gust Speed Precip Events Conditions
12:53 AM 75.9 °F - 66.0 °F 71% 30.04 in 10.0 mi Calm Calm - N/A   Clear
1:53 AM 77.0 °F - 66.9 °F 71% 30.03 in 10.0 mi Variable 4.6 mph - N/A   Mostly Cloudy
2:53 AM 77.0 °F - 66.9 °F 71% 30.01 in 10.0 mi ENE 4.6 mph - N/A   Partly Cloudy
3:53 AM 75.9 °F - 66.9 °F 74% 30.01 in 10.0 mi Variable 3.5 mph - N/A   Clear
4:53 AM 75.9 °F - 66.9 °F 74% 30.02 in 10.0 mi ENE 4.6 mph - N/A   Clear
5:53 AM 73.0 °F - 66.0 °F 79% 30.02 in 10.0 mi ENE 3.5 mph - N/A   Clear
6:53 AM 73.9 °F - 66.0 °F 76% 30.04 in 10.0 mi Calm Calm - N/A   Clear
7:53 AM 80.1 °F 81.9 °F 64.9 °F 60% 30.05 in 10.0 mi Calm Calm - N/A   Overcast
8:53 AM 81.0 °F 83.0 °F 66.0 °F 60% 30.06 in 10.0 mi Variable 3.5 mph - N/A   Overcast
9:18 AM 78.8 °F - 69.8 °F 74% 30.05 in 10.0 mi ESE 6.9 mph - 0.00 in   Overcast
9:50 AM 82.4 °F 84.6 °F 66.2 °F 58% 30.04 in 10.0 mi Variable 5.8 mph 18.4 mph 0.00 in   Overcast
9:53 AM 82.0 °F 84.5 °F 66.9 °F 60% 30.06 in 10.0 mi Variable 4.6 mph - 0.00 in   Overcast
10:53 AM 84.9 °F 87.6 °F 66.9 °F 55% 30.06 in 10.0 mi ENE 8.1 mph - N/A   Overcast
11:53 AM 82.0 °F 84.5 °F 66.9 °F 60% 30.06 in 10.0 mi Variable 3.5 mph - 0.00 in   Overcast
12:53 PM 86.0 °F 88.8 °F 66.9 °F 53% 30.04 in 10.0 mi NE 8.1 mph - N/A   Mostly Cloudy
1:53 PM 82.0 °F 84.5 °F 66.9 °F 60% 30.03 in 10.0 mi East 10.4 mph 23.0 mph 0.00 in Rain Light Rain
2:53 PM 86.0 °F 88.2 °F 66.0 °F 51% 30.01 in 10.0 mi Variable 5.8 mph - 0.00 in   Overcast
3:53 PM 87.1 °F 88.3 °F 64.0 °F 46% 30.00 in 10.0 mi ENE 12.7 mph 19.6 mph N/A   Mostly Cloudy
4:53 PM 86.0 °F 87.6 °F 64.9 °F 49% 30.01 in 10.0 mi East 10.4 mph 18.4 mph N/A   Scattered Clouds
5:53 PM 84.0 °F 85.8 °F 64.9 °F 53% 30.01 in 10.0 mi Variable 6.9 mph - N/A   Partly Cloudy
6:53 PM 82.0 °F 84.1 °F 66.0 °F 58% 30.01 in 10.0 mi Variable 5.8 mph - N/A   Mostly Cloudy
7:53 PM 79.0 °F - 66.0 °F 64% 30.04 in 10.0 mi East 5.8 mph - N/A   Partly Cloudy
8:53 PM 78.1 °F - 66.0 °F 66% 30.06 in 10.0 mi ENE 3.5 mph - N/A   Scattered Clouds
9:34 PM 77.0 °F - 66.2 °F 69% 30.05 in 10.0 mi ENE 4.6 mph - N/A   Partly Cloudy
9:53 PM 77.0 °F - 66.0 °F 69% 30.07 in 10.0 mi ENE 5.8 mph - N/A   Clear
10:53 PM 77.0 °F - 66.0 °F 69% 30.07 in 10.0 mi Calm Calm - N/A   Partly Cloudy
11:03 PM 77.0 °F - 66.2 °F 69% 30.05 in 10.0 mi Calm Calm - N/A   Partly Cloudy
11:53 PM 75.9 °F - 64.9 °F 69% 30.06 in 10.0 mi Variable 3.5 mph - N/A   Clear